sat.trackr.live / text

‹ back to catalog

STARLINK-30438

NORAD 58035 · 2023-156H

PAYLOAD ACTIVE UNKNOWN

§ Identity

Operator
Country
US
Launch date
2023-10-09
Launch site
AFWTR
Launch vehicle
Mass (kg)
RCS (m²)

Purposes: comms

External: N2YO · Heavens-Above · Gunter

§ Orbital elements

Epoch: 2026-09-20T06:10:46.116480Z

Period
94.01 min
Inclination
53.1594°
Eccentricity
0.0001309
Mean motion
15.31699773 rev/d
Perigee alt
469.8 km
Apogee alt
471.6 km
Semi-major
6,848.9 km
B*
1.9766e-5
RAAN
254.0240°
Arg perigee
71.3461°
Mean anomaly
288.7682°
Rev number
16,606

§ Raw data

STARLINK-304381 58035U 23156H   26263.25747820  .00000248  00000+0  19766-4 0  99982 58035  53.1594 254.0240 0001309  71.3461 288.7682 15.31699773166063

JSON: /api/v1/satellites/58035 · /tle

For live sub-satellite position, see the globe view (requires WebGL).

§ Visibility from observer

Set your observer location to see the next 7 days of passes ≥ 10°. The values pass through the URL so the page stays shareable.

No JS? Fill the form by hand. The geolocation button needs JavaScript.